Time,TemperatureF,DewpointF,PressureIn,WindDirection,WindDirectionDegrees,WindSpeedMPH,WindSpeedGustMPH,Humidity,HourlyPrecipIn,Conditions,Clouds,dailyrainin,SoftwareType,DateUTC
2013-11-13 00:01:00,63.0,39.6,17.72,ESE,105,0.0,0.0,42,0.00,,,0.00,meteobridge,2013-11-13 08:01:00,
2013-11-13 00:03:00,62.8,39.4,17.72,NE,40,0.0,0.0,42,0.00,,,0.00,meteobridge,2013-11-13 08:03:00,
2013-11-13 00:07:00,62.4,38.5,17.72,NNE,32,2.2,3.1,41,0.00,,,0.00,meteobridge,2013-11-13 08:07:00,
2013-11-13 00:09:00,62.1,38.1,17.72,NNE,31,0.0,2.2,41,0.00,,,0.00,meteobridge,2013-11-13 08:09:00,
2013-11-13 00:14:00,61.9,38.5,17.72,NNE,31,0.0,0.0,42,0.00,,,0.00,meteobridge,2013-11-13 08:14:00,
2013-11-13 00:16:00,61.9,38.5,17.72,NNE,31,0.0,2.2,42,0.00,,,0.00,meteobridge,2013-11-13 08:16:00,
2013-11-13 00:22:00,62.4,40.3,17.72,NNE,26,0.0,2.7,44,0.00,,,0.00,meteobridge,2013-11-13 08:22:00,
2013-11-13 00:24:00,61.9,39.7,17.72,NNE,25,0.0,0.0,44,0.00,,,0.00,meteobridge,2013-11-13 08:24:00,
2013-11-13 00:26:00,61.9,39.7,17.72,NNE,25,0.0,0.0,44,0.00,,,0.00,meteobridge,2013-11-13 08:26:00,
2013-11-13 00:28:00,61.9,39.2,17.72,NE,38,3.6,3.6,43,0.00,,,0.00,meteobridge,2013-11-13 08:28:00,
2013-11-13 00:30:00,61.7,39.0,17.72,NE,38,2.7,2.7,43,0.00,,,0.00,meteobridge,2013-11-13 08:30:00,
2013-11-13 00:33:00,61.9,39.2,17.72,NE,38,0.0,2.2,43,0.00,,,0.00,meteobridge,2013-11-13 08:33:00,
2013-11-13 00:35:00,61.9,38.5,17.72,NE,50,2.7,2.7,42,0.00,,,0.00,meteobridge,2013-11-13 08:35:00,
2013-11-13 00:37:00,61.9,39.2,17.72,NE,47,3.1,3.6,43,0.00,,,0.00,meteobridge,2013-11-13 08:37:00,
2013-11-13 00:39:00,61.9,38.5,17.72,NE,35,0.0,2.7,42,0.00,,,0.00,meteobridge,2013-11-13 08:39:00,
2013-11-13 00:41:00,61.7,38.3,17.72,NE,35,0.0,0.0,42,0.00,,,0.00,meteobridge,2013-11-13 08:41:00,
2013-11-13 00:43:00,61.7,38.3,17.72,NE,35,0.0,0.0,42,0.00,,,0.00,meteobridge,2013-11-13 08:43:00,
2013-11-13 00:45:00,61.7,37.8,17.72,NE,35,0.0,0.0,41,0.00,,,0.00,meteobridge,2013-11-13 08:45:00,
2013-11-13 00:49:00,61.9,38.5,17.72,NE,35,0.0,0.0,42,0.00,,,0.00,meteobridge,2013-11-13 08:49:00,
2013-11-13 00:51:00,61.7,38.3,17.72,NE,35,0.0,0.0,42,0.00,,,0.00,meteobridge,2013-11-13 08:51:00,
2013-11-13 00:54:00,61.7,37.8,17.72,NE,35,0.0,0.0,41,0.00,,,0.00,meteobridge,2013-11-13 08:54:00,
2013-11-13 00:56:00,61.5,38.3,17.72,NE,37,0.0,0.0,42,0.00,,,0.00,meteobridge,2013-11-13 08:56:00,
2013-11-13 00:58:00,61.7,38.3,17.72,NE,37,0.0,0.0,42,0.00,,,0.00,meteobridge,2013-11-13 08:58:00,
2013-11-13 01:00:00,61.9,38.5,17.72,NNE,30,0.0,0.0,42,0.00,,,0.00,meteobridge,2013-11-13 09:00:00,
2013-11-13 01:02:00,61.9,38.5,17.72,NNE,12,3.1,3.1,42,0.00,,,0.00,meteobridge,2013-11-13 09:02:00,
2013-11-13 01:04:00,61.9,38.5,17.72,NNE,20,0.0,2.7,42,0.00,,,0.00,meteobridge,2013-11-13 09:04:00,
2013-11-13 01:06:00,61.7,38.3,17.72,NNE,16,0.0,0.0,42,0.00,,,0.00,meteobridge,2013-11-13 09:06:00,
2013-11-13 01:08:00,61.7,38.3,17.72,NNE,16,0.0,0.0,42,0.00,,,0.00,meteobridge,2013-11-13 09:08:00,
2013-11-13 01:10:00,62.4,40.8,17.72,NNE,16,0.0,0.0,45,0.00,,,0.00,meteobridge,2013-11-13 09:10:00,
2013-11-13 01:15:00,62.2,40.6,17.72,ENE,58,0.0,0.0,45,0.00,,,0.00,meteobridge,2013-11-13 09:15:00,
2013-11-13 01:17:00,62.4,40.8,17.72,NE,55,0.0,0.0,45,0.00,,,0.00,meteobridge,2013-11-13 09:17:00,
2013-11-13 01:19:00,62.4,40.3,17.72,NE,55,0.0,0.0,44,0.00,,,0.00,meteobridge,2013-11-13 09:19:00,
2013-11-13 01:21:00,62.6,40.5,17.72,SW,222,3.6,3.6,44,0.00,,,0.00,meteobridge,2013-11-13 09:21:00,
2013-11-13 01:23:00,62.4,40.3,17.72,NNW,329,0.0,0.0,44,0.00,,,0.00,meteobridge,2013-11-13 09:23:00,
2013-11-13 01:27:00,61.7,39.0,17.72,NNE,30,0.0,2.7,43,0.00,,,0.00,meteobridge,2013-11-13 09:27:00,
2013-11-13 01:29:00,61.5,39.4,17.72,NNE,30,0.0,0.0,44,0.00,,,0.00,meteobridge,2013-11-13 09:29:00,
2013-11-13 01:31:00,61.7,40.1,17.72,NNE,12,0.0,0.0,45,0.00,,,0.00,meteobridge,2013-11-13 09:31:00,
2013-11-13 01:33:00,61.7,39.6,17.72,NNE,32,2.7,3.1,44,0.00,,,0.00,meteobridge,2013-11-13 09:33:00,
2013-11-13 01:38:00,61.3,39.2,17.72,NNE,31,0.0,2.2,44,0.00,,,0.00,meteobridge,2013-11-13 09:38:00,
2013-11-13 01:40:00,61.5,39.4,17.72,NNW,327,0.0,0.0,44,0.00,,,0.00,meteobridge,2013-11-13 09:40:00,
2013-11-13 01:44:00,61.5,38.3,17.72,NNE,17,0.0,0.0,42,0.00,,,0.00,meteobridge,2013-11-13 09:44:00,
2013-11-13 01:46:00,61.3,38.1,17.72,ENE,60,4.9,4.9,42,0.00,,,0.00,meteobridge,2013-11-13 09:46:00,
2013-11-13 01:50:00,61.3,36.9,17.72,NE,54,0.0,0.0,40,0.00,,,0.00,meteobridge,2013-11-13 09:50:00,
2013-11-13 01:52:00,61.3,36.1,17.72,NE,44,0.0,0.0,39,0.00,,,0.00,meteobridge,2013-11-13 09:52:00,
2013-11-13 01:54:00,61.3,36.1,17.72,NE,44,0.0,0.0,39,0.00,,,0.00,meteobridge,2013-11-13 09:54:00,
2013-11-13 01:57:00,61.3,36.1,17.72,NE,51,4.9,4.9,39,0.00,,,0.00,meteobridge,2013-11-13 09:57:00,
2013-11-13 02:01:00,61.9,36.0,17.72,ENE,75,0.0,2.2,38,0.00,,,0.00,meteobridge,2013-11-13 10:01:00,
2013-11-13 02:05:00,62.6,36.7,17.72,ENE,75,0.0,0.0,38,0.00,,,0.00,meteobridge,2013-11-13 10:05:00,
2013-11-13 02:07:00,62.6,36.7,17.72,NE,45,3.1,3.1,38,0.00,,,0.00,meteobridge,2013-11-13 10:07:00,
2013-11-13 02:09:00,62.4,36.5,17.72,NE,45,0.0,2.7,38,0.00,,,0.00,meteobridge,2013-11-13 10:09:00,
2013-11-13 02:11:00,62.4,36.5,17.72,NE,45,0.0,0.0,38,0.00,,,0.00,meteobridge,2013-11-13 10:11:00,
2013-11-13 02:13:00,62.4,36.5,17.72,NE,45,0.0,0.0,38,0.00,,,0.00,meteobridge,2013-11-13 10:13:00,
2013-11-13 02:15:00,62.2,36.3,17.72,NE,45,0.0,0.0,38,0.00,,,0.00,meteobridge,2013-11-13 10:15:00,
2013-11-13 02:19:00,62.1,36.1,17.72,NE,45,0.0,0.0,38,0.00,,,0.00,meteobridge,2013-11-13 10:19:00,
2013-11-13 02:22:00,62.2,36.3,17.72,ENE,61,2.7,2.7,38,0.00,,,0.00,meteobridge,2013-11-13 10:22:00,
2013-11-13 02:26:00,62.2,36.3,17.72,ENE,62,0.0,0.0,38,0.00,,,0.00,meteobridge,2013-11-13 10:26:00,
2013-11-13 02:28:00,61.9,34.7,17.72,ENE,62,0.0,0.0,36,0.00,,,0.00,meteobridge,2013-11-13 10:28:00,
2013-11-13 02:30:00,61.9,34.7,17.72,ENE,62,0.0,0.0,36,0.00,,,0.00,meteobridge,2013-11-13 10:30:00,
2013-11-13 02:34:00,61.2,34.0,17.72,ENE,61,0.0,0.0,36,0.00,,,0.00,meteobridge,2013-11-13 10:34:00,
2013-11-13 02:36:00,61.0,33.8,17.72,ENE,61,0.0,0.0,36,0.00,,,0.00,meteobridge,2013-11-13 10:36:00,
2013-11-13 02:40:00,60.6,33.4,17.72,ENE,61,0.0,0.0,36,0.00,,,0.00,meteobridge,2013-11-13 10:40:00,
2013-11-13 02:42:00,60.4,32.7,17.72,ENE,61,0.0,0.0,35,0.00,,,0.00,meteobridge,2013-11-13 10:42:00,
2013-11-13 02:45:00,60.4,32.7,17.72,NE,40,2.7,4.0,35,0.00,,,0.00,meteobridge,2013-11-13 10:45:00,
2013-11-13 02:47:00,60.1,32.4,17.72,NE,40,0.0,2.7,35,0.00,,,0.00,meteobridge,2013-11-13 10:47:00,
2013-11-13 02:49:00,60.3,32.5,17.72,North,4,0.0,0.0,35,0.00,,,0.00,meteobridge,2013-11-13 10:49:00,
2013-11-13 02:51:00,60.4,32.7,17.72,North,4,0.0,0.0,35,0.00,,,0.00,meteobridge,2013-11-13 10:51:00,
2013-11-13 02:55:00,60.3,31.8,17.72,North,4,0.0,0.0,34,0.00,,,0.00,meteobridge,2013-11-13 10:55:00,
2013-11-13 02:59:00,60.3,31.8,17.72,NE,37,3.6,3.6,34,0.00,,,0.00,meteobridge,2013-11-13 10:59:00,
2013-11-13 03:03:00,60.3,31.8,17.72,NE,49,0.0,3.1,34,0.00,,,0.00,meteobridge,2013-11-13 11:03:00,
2013-11-13 03:05:00,60.4,32.0,17.72,NE,34,2.2,2.7,34,0.00,,,0.00,meteobridge,2013-11-13 11:05:00,
2013-11-13 03:10:00,60.3,31.1,17.72,NNE,23,2.7,2.7,33,0.00,,,0.00,meteobridge,2013-11-13 11:10:00,
2013-11-13 03:12:00,60.3,31.1,17.72,NNE,24,0.0,2.2,33,0.00,,,0.00,meteobridge,2013-11-13 11:12:00,
2013-11-13 03:14:00,60.1,28.6,17.72,NNW,344,3.1,3.1,30,0.00,,,0.00,meteobridge,2013-11-13 11:14:00,
2013-11-13 03:20:00,60.3,27.9,17.72,East,79,0.0,0.0,29,0.00,,,0.00,meteobridge,2013-11-13 11:20:00,
2013-11-13 03:24:00,60.3,27.9,17.72,ENE,73,0.0,3.1,29,0.00,,,0.00,meteobridge,2013-11-13 11:24:00,
2013-11-13 03:26:00,60.3,27.9,17.72,ENE,76,0.0,0.0,29,0.00,,,0.00,meteobridge,2013-11-13 11:26:00,
2013-11-13 03:28:00,60.3,27.9,17.72,NE,56,0.0,0.0,29,0.00,,,0.00,meteobridge,2013-11-13 11:28:00,
2013-11-13 03:30:00,59.9,27.5,17.72,NE,46,3.6,4.0,29,0.00,,,0.00,meteobridge,2013-11-13 11:30:00,
2013-11-13 03:35:00,59.7,28.2,17.72,NE,46,0.0,0.0,30,0.00,,,0.00,meteobridge,2013-11-13 11:35:00,
2013-11-13 03:37:00,59.7,28.2,17.72,NE,36,0.0,0.0,30,0.00,,,0.00,meteobridge,2013-11-13 11:37:00,
2013-11-13 03:39:00,59.7,28.2,17.72,SSW,199,0.0,0.0,30,0.00,,,0.00,meteobridge,2013-11-13 11:39:00,
2013-11-13 03:41:00,59.7,28.2,17.72,SSW,199,0.0,0.0,30,0.00,,,0.00,meteobridge,2013-11-13 11:41:00,
2013-11-13 03:43:00,59.5,28.0,17.72,East,95,0.0,0.0,30,0.00,,,0.00,meteobridge,2013-11-13 11:43:00,
2013-11-13 03:45:00,59.5,28.9,17.72,East,95,0.0,0.0,31,0.00,,,0.00,meteobridge,2013-11-13 11:45:00,
2013-11-13 03:49:00,59.5,28.9,17.72,East,95,0.0,0.0,31,0.00,,,0.00,meteobridge,2013-11-13 11:49:00,
2013-11-13 03:53:00,59.7,29.8,17.72,East,95,0.0,0.0,32,0.00,,,0.00,meteobridge,2013-11-13 11:53:00,
2013-11-13 03:56:00,59.9,30.0,17.72,NE,34,3.1,3.1,32,0.00,,,0.00,meteobridge,2013-11-13 11:56:00,
2013-11-13 03:58:00,59.9,30.0,17.72,NNE,24,3.1,3.6,32,0.00,,,0.00,meteobridge,2013-11-13 11:58:00,
2013-11-13 04:00:00,59.9,30.0,17.72,NNE,23,0.0,2.7,32,0.00,,,0.00,meteobridge,2013-11-13 12:00:00,
2013-11-13 04:02:00,59.9,31.5,17.72,NNE,23,2.2,2.2,34,0.00,,,0.00,meteobridge,2013-11-13 12:02:00,
2013-11-13 04:04:00,60.1,31.6,17.72,South,182,0.0,0.0,34,0.00,,,0.00,meteobridge,2013-11-13 12:04:00,
2013-11-13 04:06:00,59.9,31.5,17.72,South,182,0.0,0.0,34,0.00,,,0.00,meteobridge,2013-11-13 12:06:00,
2013-11-13 04:08:00,59.7,31.3,17.72,South,182,0.0,0.0,34,0.00,,,0.00,meteobridge,2013-11-13 12:08:00,
2013-11-13 04:10:00,59.5,31.1,17.72,NE,38,4.0,4.0,34,0.00,,,0.00,meteobridge,2013-11-13 12:10:00,
2013-11-13 04:12:00,59.4,30.9,17.72,NNE,32,3.1,4.9,34,0.00,,,0.00,meteobridge,2013-11-13 12:12:00,
2013-11-13 04:14:00,59.4,30.9,17.72,NNE,19,0.0,2.7,34,0.00,,,0.00,meteobridge,2013-11-13 12:14:00,
2013-11-13 04:17:00,59.2,30.7,17.72,NE,37,0.0,0.0,34,0.00,,,0.00,meteobridge,2013-11-13 12:17:00,
2013-11-13 04:19:00,59.4,30.9,17.72,NNE,32,3.1,4.9,34,0.00,,,0.00,meteobridge,2013-11-13 12:19:00,
2013-11-13 04:21:00,59.4,30.9,17.72,NNE,15,0.0,4.0,34,0.00,,,0.00,meteobridge,2013-11-13 12:21:00,
2013-11-13 04:27:00,59.9,32.2,17.72,NNE,14,0.0,0.0,35,0.00,,,0.00,meteobridge,2013-11-13 12:27:00,
2013-11-13 04:29:00,60.3,32.5,17.72,SSW,213,0.0,2.7,35,0.00,,,0.00,meteobridge,2013-11-13 12:29:00,
2013-11-13 04:31:00,60.1,32.4,17.72,SSW,213,0.0,0.0,35,0.00,,,0.00,meteobridge,2013-11-13 12:31:00,
2013-11-13 04:37:00,59.9,32.9,17.72,NE,42,0.0,0.0,36,0.00,,,0.00,meteobridge,2013-11-13 12:37:00,
2013-11-13 04:39:00,60.1,32.4,17.72,NE,48,3.1,4.0,35,0.00,,,0.00,meteobridge,2013-11-13 12:39:00,
2013-11-13 04:44:00,60.1,32.4,17.72,NE,48,0.0,0.0,35,0.00,,,0.00,meteobridge,2013-11-13 12:44:00,
2013-11-13 04:46:00,60.3,33.3,17.72,NE,48,0.0,0.0,36,0.00,,,0.00,meteobridge,2013-11-13 12:46:00,
2013-11-13 04:48:00,60.4,33.4,17.72,NE,37,2.7,2.7,36,0.00,,,0.00,meteobridge,2013-11-13 12:48:00,
2013-11-13 04:50:00,60.3,33.3,17.72,NE,42,3.1,3.6,36,0.00,,,0.00,meteobridge,2013-11-13 12:50:00,
2013-11-13 04:52:00,60.3,33.3,17.72,ENE,58,2.2,3.6,36,0.00,,,0.00,meteobridge,2013-11-13 12:52:00,
2013-11-13 04:56:00,60.3,32.5,17.72,WSW,237,0.0,0.0,35,0.00,,,0.00,meteobridge,2013-11-13 12:56:00,
2013-11-13 04:58:00,60.3,32.5,17.72,WSW,237,0.0,0.0,35,0.00,,,0.00,meteobridge,2013-11-13 12:58:00,
2013-11-13 05:00:00,60.3,32.5,17.72,NNE,14,0.0,0.0,35,0.00,,,0.00,meteobridge,2013-11-13 13:00:00,
2013-11-13 05:02:00,60.1,32.4,17.72,NE,46,3.6,4.9,35,0.00,,,0.00,meteobridge,2013-11-13 13:02:00,
2013-11-13 05:04:00,60.1,32.4,17.72,NE,47,0.0,4.0,35,0.00,,,0.00,meteobridge,2013-11-13 13:04:00,
2013-11-13 05:06:00,59.7,31.3,17.72,NE,47,0.0,0.0,34,0.00,,,0.00,meteobridge,2013-11-13 13:06:00,
2013-11-13 05:08:00,59.9,31.5,17.72,NE,47,0.0,0.0,34,0.00,,,0.00,meteobridge,2013-11-13 13:08:00,
2013-11-13 05:10:00,60.1,31.6,17.72,NE,47,0.0,0.0,34,0.00,,,0.00,meteobridge,2013-11-13 13:10:00,
2013-11-13 05:13:00,60.1,31.6,17.72,NE,47,0.0,0.0,34,0.00,,,0.00,meteobridge,2013-11-13 13:13:00,
2013-11-13 05:17:00,60.8,32.2,17.72,SSE,159,0.0,0.0,34,0.00,,,0.00,meteobridge,2013-11-13 13:17:00,
2013-11-13 05:19:00,61.3,32.7,17.72,South,177,0.0,4.0,34,0.00,,,0.00,meteobridge,2013-11-13 13:19:00,
2013-11-13 05:23:00,61.3,32.7,17.72,NE,52,0.0,0.0,34,0.00,,,0.00,meteobridge,2013-11-13 13:23:00,
2013-11-13 05:25:00,61.0,32.4,17.72,NE,51,0.0,4.0,34,0.00,,,0.00,meteobridge,2013-11-13 13:25:00,
2013-11-13 05:31:00,60.3,31.8,17.72,NE,46,3.1,3.1,34,0.00,,,0.00,meteobridge,2013-11-13 13:31:00,
2013-11-13 05:35:00,60.1,31.6,17.72,ENE,58,0.0,3.6,34,0.00,,,0.00,meteobridge,2013-11-13 13:35:00,
2013-11-13 05:38:00,59.9,30.7,17.72,North,357,0.0,0.0,33,0.00,,,0.00,meteobridge,2013-11-13 13:38:00,
2013-11-13 05:40:00,60.1,29.3,17.72,North,357,2.2,3.1,31,0.00,,,0.00,meteobridge,2013-11-13 13:40:00,
2013-11-13 05:44:00,60.1,28.6,17.72,NNE,17,0.0,4.0,30,0.00,,,0.00,meteobridge,2013-11-13 13:44:00,
2013-11-13 05:48:00,59.7,26.6,17.72,NNE,14,0.0,0.0,28,0.00,,,0.00,meteobridge,2013-11-13 13:48:00,
2013-11-13 05:50:00,59.5,26.4,17.72,NNE,14,0.0,0.0,28,0.00,,,0.00,meteobridge,2013-11-13 13:50:00,
2013-11-13 05:52:00,59.5,25.5,17.72,NW,316,0.0,0.0,27,0.00,,,0.00,meteobridge,2013-11-13 13:52:00,
2013-11-13 05:54:00,59.7,25.7,17.72,NE,40,4.0,4.0,27,0.00,,,0.00,meteobridge,2013-11-13 13:54:00,
2013-11-13 05:59:00,59.9,25.9,17.72,NE,46,0.0,3.6,27,0.00,,,0.00,meteobridge,2013-11-13 13:59:00,
2013-11-13 06:05:00,60.4,26.2,17.72,East,93,0.0,0.0,27,0.00,,,0.00,meteobridge,2013-11-13 14:05:00,
2013-11-13 06:07:00,60.8,25.7,17.72,East,93,0.0,2.2,26,0.00,,,0.00,meteobridge,2013-11-13 14:07:00,
2013-11-13 06:09:00,61.2,26.1,17.72,East,93,0.0,0.0,26,0.00,,,0.00,meteobridge,2013-11-13 14:09:00,
2013-11-13 06:11:00,61.3,26.2,17.72,NE,39,0.0,0.0,26,0.00,,,0.00,meteobridge,2013-11-13 14:11:00,
2013-11-13 06:15:00,61.0,25.9,17.72,NE,39,0.0,0.0,26,0.00,,,0.00,meteobridge,2013-11-13 14:15:00,
2013-11-13 06:22:00,61.2,26.1,17.72,ESE,110,0.0,0.0,26,0.00,,,0.00,meteobridge,2013-11-13 14:22:00,
2013-11-13 06:24:00,61.3,26.2,17.72,East,95,0.0,0.0,26,0.00,,,0.00,meteobridge,2013-11-13 14:24:00,
2013-11-13 06:28:00,61.7,26.4,17.72,ENE,65,0.0,0.0,26,0.00,,,0.00,meteobridge,2013-11-13 14:28:00,
2013-11-13 06:30:00,61.9,26.6,17.72,ENE,65,0.0,0.0,26,0.00,,,0.00,meteobridge,2013-11-13 14:30:00,
2013-11-13 06:34:00,61.7,26.4,17.72,NE,36,0.0,0.0,26,0.00,,,0.00,meteobridge,2013-11-13 14:34:00,
2013-11-13 06:36:00,61.5,26.2,17.72,NE,36,0.0,0.0,26,0.00,,,0.00,meteobridge,2013-11-13 14:36:00,
2013-11-13 06:38:00,61.3,26.2,17.72,NE,36,0.0,0.0,26,0.00,,,0.00,meteobridge,2013-11-13 14:38:00,
2013-11-13 06:40:00,61.3,26.2,17.72,NE,36,0.0,0.0,26,0.00,,,0.00,meteobridge,2013-11-13 14:40:00,
2013-11-13 06:44:00,61.7,26.4,17.72,East,95,0.0,0.0,26,0.00,,,0.00,meteobridge,2013-11-13 14:44:00,
2013-11-13 06:47:00,61.7,26.4,17.72,East,95,0.0,0.0,26,0.00,,,0.00,meteobridge,2013-11-13 14:47:00,
2013-11-13 06:49:00,61.9,27.5,17.72,East,95,0.0,0.0,27,0.00,,,0.00,meteobridge,2013-11-13 14:49:00,
2013-11-13 06:51:00,61.9,27.5,17.72,East,95,0.0,0.0,27,0.00,,,0.00,meteobridge,2013-11-13 14:51:00,
2013-11-13 06:55:00,62.1,29.5,17.72,East,95,0.0,0.0,29,0.00,,,0.00,meteobridge,2013-11-13 14:55:00,
2013-11-13 07:01:00,61.3,30.4,17.72,ESE,113,0.0,0.0,31,0.00,,,0.00,meteobridge,2013-11-13 15:01:00,
2013-11-13 07:03:00,61.5,32.9,17.72,ESE,119,0.0,0.0,34,0.00,,,0.00,meteobridge,2013-11-13 15:03:00,
2013-11-13 07:07:00,61.3,32.7,17.72,NE,41,0.0,0.0,34,0.00,,,0.00,meteobridge,2013-11-13 15:07:00,
2013-11-13 07:09:00,61.2,32.5,17.72,NE,41,0.0,0.0,34,0.00,,,0.00,meteobridge,2013-11-13 15:09:00,
2013-11-13 07:12:00,61.3,33.4,17.72,NE,41,0.0,0.0,35,0.00,,,0.00,meteobridge,2013-11-13 15:12:00,
2013-11-13 07:14:00,61.3,33.4,17.72,NE,41,0.0,0.0,35,0.00,,,0.00,meteobridge,2013-11-13 15:14:00,
2013-11-13 07:20:00,61.9,34.0,17.72,South,171,0.0,4.5,35,0.00,,,0.00,meteobridge,2013-11-13 15:20:00,
2013-11-13 07:22:00,61.9,34.0,17.72,NNE,30,0.0,0.0,35,0.00,,,0.00,meteobridge,2013-11-13 15:22:00,
2013-11-13 07:24:00,61.9,34.0,17.72,North,11,0.0,0.0,35,0.00,,,0.00,meteobridge,2013-11-13 15:24:00,
2013-11-13 07:26:00,61.9,34.0,17.72,North,11,0.0,0.0,35,0.00,,,0.00,meteobridge,2013-11-13 15:26:00,
2013-11-13 07:28:00,61.9,34.0,17.72,North,11,0.0,0.0,35,0.00,,,0.00,meteobridge,2013-11-13 15:28:00,
2013-11-13 07:30:00,61.9,34.0,17.72,North,11,0.0,0.0,35,0.00,,,0.00,meteobridge,2013-11-13 15:30:00,
2013-11-13 07:33:00,61.9,33.3,17.72,North,353,0.0,0.0,34,0.00,,,0.00,meteobridge,2013-11-13 15:33:00,
2013-11-13 07:35:00,62.2,32.7,17.72,North,353,0.0,0.0,33,0.00,,,0.00,meteobridge,2013-11-13 15:35:00,
2013-11-13 07:39:00,62.6,33.1,17.72,North,3,0.0,0.0,33,0.00,,,0.00,meteobridge,2013-11-13 15:39:00,
2013-11-13 07:41:00,63.0,32.7,17.72,North,9,0.0,3.6,32,0.00,,,0.00,meteobridge,2013-11-13 15:41:00,
2013-11-13 07:43:00,62.6,30.7,17.72,North,0,0.0,2.2,30,0.00,,,0.00,meteobridge,2013-11-13 15:43:00,
2013-11-13 07:45:00,62.6,27.1,17.72,NNW,340,2.7,2.7,26,0.00,,,0.00,meteobridge,2013-11-13 15:45:00,
2013-11-13 07:47:00,63.3,27.9,17.72,NNW,334,2.2,3.6,26,0.00,,,0.00,meteobridge,2013-11-13 15:47:00,
2013-11-13 07:49:00,63.5,27.0,17.72,NNW,339,0.0,2.2,25,0.00,,,0.00,meteobridge,2013-11-13 15:49:00,
2013-11-13 07:54:00,64.2,27.7,17.72,NNW,339,0.0,0.0,25,0.00,,,0.00,meteobridge,2013-11-13 15:54:00,
2013-11-13 07:56:00,64.8,27.1,17.72,North,353,0.0,0.0,24,0.00,,,0.00,meteobridge,2013-11-13 15:56:00,
2013-11-13 08:02:00,65.5,27.7,17.72,North,353,0.0,0.0,24,0.00,,,0.00,meteobridge,2013-11-13 16:02:00,
2013-11-13 08:04:00,66.2,28.4,17.72,SSW,199,0.0,0.0,24,0.00,,,0.00,meteobridge,2013-11-13 16:04:00,
2013-11-13 08:06:00,66.7,29.8,17.72,SW,215,0.0,2.7,25,0.00,,,0.00,meteobridge,2013-11-13 16:06:00,
2013-11-13 08:08:00,66.9,30.0,17.72,WNW,293,0.0,0.0,25,0.00,,,0.00,meteobridge,2013-11-13 16:08:00,
2013-11-13 08:11:00,66.9,28.9,17.72,WNW,293,0.0,0.0,24,0.00,,,0.00,meteobridge,2013-11-13 16:11:00,
2013-11-13 08:17:00,67.3,30.2,17.72,South,184,0.0,0.0,25,0.00,,,0.00,meteobridge,2013-11-13 16:17:00,
2013-11-13 08:19:00,67.6,30.6,17.72,SSW,212,0.0,2.2,25,0.00,,,0.00,meteobridge,2013-11-13 16:19:00,
2013-11-13 08:23:00,67.5,30.4,17.72,SSW,203,0.0,0.0,25,0.00,,,0.00,meteobridge,2013-11-13 16:23:00,
2013-11-13 08:25:00,67.6,30.6,17.72,SSW,203,0.0,0.0,25,0.00,,,0.00,meteobridge,2013-11-13 16:25:00,
2013-11-13 08:27:00,67.5,30.4,17.72,SSW,203,0.0,0.0,25,0.00,,,0.00,meteobridge,2013-11-13 16:27:00,
2013-11-13 08:32:00,67.8,30.7,17.72,SSW,213,0.0,0.0,25,0.00,,,0.00,meteobridge,2013-11-13 16:32:00,
2013-11-13 08:34:00,67.8,31.6,17.72,WSW,256,0.0,0.0,26,0.00,,,0.00,meteobridge,2013-11-13 16:34:00,
2013-11-13 08:38:00,67.8,30.7,17.72,NNW,330,0.0,0.0,25,0.00,,,0.00,meteobridge,2013-11-13 16:38:00,
2013-11-13 08:40:00,67.3,29.3,17.72,North,357,0.0,0.0,24,0.00,,,0.00,meteobridge,2013-11-13 16:40:00,
2013-11-13 08:42:00,67.8,29.7,17.72,WSW,237,0.0,0.0,24,0.00,,,0.00,meteobridge,2013-11-13 16:42:00,
2013-11-13 08:46:00,68.5,29.3,17.72,WSW,237,0.0,0.0,23,0.00,,,0.00,meteobridge,2013-11-13 16:46:00,
2013-11-13 08:48:00,68.9,29.7,17.72,WSW,237,0.0,0.0,23,0.00,,,0.00,meteobridge,2013-11-13 16:48:00,
2013-11-13 08:52:00,69.6,30.2,17.72,WSW,238,0.0,0.0,23,0.00,,,0.00,meteobridge,2013-11-13 16:52:00,
2013-11-13 08:54:00,69.8,29.3,17.72,SSW,211,0.0,0.0,22,0.00,,,0.00,meteobridge,2013-11-13 16:54:00,
2013-11-13 08:57:00,70.3,29.7,17.72,SSW,200,0.0,0.0,22,0.00,,,0.00,meteobridge,2013-11-13 16:57:00,
2013-11-13 08:59:00,71.2,30.4,17.72,SSW,200,0.0,0.0,22,0.00,,,0.00,meteobridge,2013-11-13 16:59:00,
2013-11-13 09:01:00,72.0,31.1,17.72,SSW,200,0.0,0.0,22,0.00,,,0.00,meteobridge,2013-11-13 17:01:00,
2013-11-13 09:07:00,74.3,31.8,17.72,South,172,0.0,2.7,21,0.00,,,0.00,meteobridge,2013-11-13 17:07:00,
2013-11-13 09:09:00,74.1,31.6,17.72,South,177,0.0,0.0,21,0.00,,,0.00,meteobridge,2013-11-13 17:09:00,
2013-11-13 09:11:00,74.7,32.2,17.72,SW,234,2.7,3.1,21,0.00,,,0.00,meteobridge,2013-11-13 17:11:00,
2013-11-13 09:15:00,77.2,33.1,17.72,WSW,255,0.0,0.0,20,0.00,,,0.00,meteobridge,2013-11-13 17:15:00,
2013-11-13 09:18:00,79.0,34.5,17.72,WSW,255,0.0,0.0,20,0.00,,,0.00,meteobridge,2013-11-13 17:18:00,
2013-11-13 09:20:00,83.8,37.2,17.72,SSW,202,0.0,0.0,19,0.00,,,0.00,meteobridge,2013-11-13 17:20:00,
2013-11-13 09:22:00,85.6,37.2,17.72,SSW,208,0.0,0.0,18,0.00,,,0.00,meteobridge,2013-11-13 17:22:00,
2013-11-13 09:24:00,82.4,31.6,17.72,SSW,195,3.1,3.6,16,0.00,,,0.00,meteobridge,2013-11-13 17:24:00,
2013-11-13 09:26:00,86.4,34.9,17.72,West,274,0.0,2.2,16,0.00,,,0.00,meteobridge,2013-11-13 17:26:00,
2013-11-13 09:30:00,87.6,36.0,17.72,SSW,207,0.0,0.0,16,0.00,,,0.00,meteobridge,2013-11-13 17:30:00,
2013-11-13 09:32:00,87.4,35.8,17.72,WSW,250,0.0,0.0,16,0.00,,,0.00,meteobridge,2013-11-13 17:32:00,
2013-11-13 09:34:00,89.6,35.8,17.72,South,171,0.0,0.0,15,0.00,,,0.00,meteobridge,2013-11-13 17:34:00,
2013-11-13 09:38:00,88.3,31.3,17.72,South,180,0.0,3.1,13,0.00,,,0.00,meteobridge,2013-11-13 17:38:00,
2013-11-13 09:40:00,91.6,31.8,17.72,South,181,0.0,0.0,12,0.00,,,0.00,meteobridge,2013-11-13 17:40:00,
2013-11-13 09:47:00,95.5,32.7,17.72,West,276,0.0,0.0,11,0.00,,,0.00,meteobridge,2013-11-13 17:47:00,
2013-11-13 09:49:00,96.6,33.4,17.72,NNW,332,0.0,0.0,11,0.00,,,0.00,meteobridge,2013-11-13 17:49:00,
2013-11-13 09:53:00,92.3,32.4,17.72,SSW,213,5.4,5.4,12,0.00,,,0.00,meteobridge,2013-11-13 17:53:00,
2013-11-13 09:55:00,90.1,30.7,17.72,South,170,0.0,4.5,12,0.00,,,0.00,meteobridge,2013-11-13 17:55:00,
2013-11-13 10:01:00,93.4,31.1,17.72,SW,221,0.0,0.0,11,0.00,,,0.00,meteobridge,2013-11-13 18:01:00,
2013-11-13 10:03:00,88.5,31.5,17.72,SW,229,0.0,3.6,13,0.00,,,0.00,meteobridge,2013-11-13 18:03:00,
2013-11-13 10:05:00,92.3,32.4,17.72,SW,223,0.0,2.2,12,0.00,,,0.00,meteobridge,2013-11-13 18:05:00,
2013-11-13 10:10:00,98.1,34.5,17.72,SW,227,0.0,0.0,11,0.00,,,0.00,meteobridge,2013-11-13 18:10:00,
2013-11-13 10:14:00,100.6,34.2,17.72,SSW,208,2.7,2.7,10,0.00,,,0.00,meteobridge,2013-11-13 18:14:00,
2013-11-13 10:16:00,95.0,32.2,17.72,SW,228,4.0,4.0,11,0.00,,,0.00,meteobridge,2013-11-13 18:16:00,
2013-11-13 10:18:00,92.3,32.4,17.72,SSW,207,6.3,6.3,12,0.00,,,0.00,meteobridge,2013-11-13 18:18:00,
2013-11-13 10:24:00,90.3,30.7,17.72,SW,228,0.0,2.7,12,0.00,,,0.00,meteobridge,2013-11-13 18:24:00,
2013-11-13 10:26:00,93.7,31.3,17.72,SW,221,0.0,0.0,11,0.00,,,0.00,meteobridge,2013-11-13 18:26:00,
2013-11-13 10:28:00,95.9,32.9,17.72,SW,221,0.0,0.0,11,0.00,,,0.00,meteobridge,2013-11-13 18:28:00,
2013-11-13 10:31:00,99.3,33.3,17.72,SW,235,0.0,0.0,10,0.00,,,0.00,meteobridge,2013-11-13 18:31:00,
2013-11-13 10:35:00,98.2,34.7,17.72,SSW,194,0.0,0.0,11,0.00,,,0.00,meteobridge,2013-11-13 18:35:00,
2013-11-13 10:39:00,96.8,33.6,17.72,SW,232,0.0,0.0,11,0.00,,,0.00,meteobridge,2013-11-13 18:39:00,
2013-11-13 10:41:00,98.4,34.9,17.72,West,263,0.0,0.0,11,0.00,,,0.00,meteobridge,2013-11-13 18:41:00,
2013-11-13 10:45:00,102.4,32.9,17.72,SW,227,0.0,0.0,9,0.00,,,0.00,meteobridge,2013-11-13 18:45:00,
2013-11-13 10:47:00,99.1,33.1,17.72,WSW,256,0.0,2.7,10,0.00,,,0.00,meteobridge,2013-11-13 18:47:00,
2013-11-13 10:49:00,99.1,33.1,17.72,SSW,194,0.0,3.1,10,0.00,,,0.00,meteobridge,2013-11-13 18:49:00,
2013-11-13 10:54:00,97.3,34.0,17.72,SSW,202,0.0,0.0,11,0.00,,,0.00,meteobridge,2013-11-13 18:54:00,
2013-11-13 10:56:00,95.9,32.9,17.72,SSW,197,0.0,0.0,11,0.00,,,0.00,meteobridge,2013-11-13 18:56:00,
2013-11-13 10:58:00,99.3,33.3,17.72,WNW,293,0.0,0.0,10,0.00,,,0.00,meteobridge,2013-11-13 18:58:00,
2013-11-13 11:00:00,101.7,34.9,17.72,SW,235,3.1,3.1,10,0.00,,,0.00,meteobridge,2013-11-13 19:00:00,
2013-11-13 11:06:00,90.1,30.7,17.72,SW,219,2.2,4.9,12,0.00,,,0.00,meteobridge,2013-11-13 19:06:00,
2013-11-13 11:08:00,90.1,30.7,17.72,West,265,0.0,4.0,12,0.00,,,0.00,meteobridge,2013-11-13 19:08:00,
2013-11-13 11:10:00,93.6,31.1,17.72,WNW,282,2.2,2.2,11,0.00,,,0.00,meteobridge,2013-11-13 19:10:00,
2013-11-13 11:13:00,95.5,32.7,17.72,SW,217,0.0,2.7,11,0.00,,,0.00,meteobridge,2013-11-13 19:13:00,
2013-11-13 11:15:00,94.3,31.6,17.72,SW,231,4.9,4.9,11,0.00,,,0.00,meteobridge,2013-11-13 19:15:00,
2013-11-13 11:17:00,88.3,31.3,17.72,SW,217,2.7,4.0,13,0.00,,,0.00,meteobridge,2013-11-13 19:17:00,
2013-11-13 11:19:00,92.7,32.7,17.72,SW,230,3.1,4.0,12,0.00,,,0.00,meteobridge,2013-11-13 19:19:00,
2013-11-13 11:21:00,91.6,31.8,17.72,West,274,0.0,3.6,12,0.00,,,0.00,meteobridge,2013-11-13 19:21:00,
2013-11-13 11:23:00,94.1,31.6,17.72,SW,222,2.7,3.1,11,0.00,,,0.00,meteobridge,2013-11-13 19:23:00,
2013-11-13 11:25:00,93.2,30.9,17.72,West,269,0.0,4.0,11,0.00,,,0.00,meteobridge,2013-11-13 19:25:00,
2013-11-13 11:27:00,93.9,31.5,17.72,SSW,198,2.7,4.0,11,0.00,,,0.00,meteobridge,2013-11-13 19:27:00,
2013-11-13 11:29:00,92.1,32.2,17.72,SSW,210,4.9,4.9,12,0.00,,,0.00,meteobridge,2013-11-13 19:29:00,
2013-11-13 11:31:00,91.0,31.5,17.72,SW,233,3.1,5.8,12,0.00,,,0.00,meteobridge,2013-11-13 19:31:00,
2013-11-13 11:34:00,93.0,32.9,17.72,SW,227,0.0,2.7,12,0.00,,,0.00,meteobridge,2013-11-13 19:34:00,
2013-11-13 11:40:00,96.6,33.4,17.72,WSW,247,3.1,3.1,11,0.00,,,0.00,meteobridge,2013-11-13 19:40:00,
2013-11-13 11:42:00,97.9,34.5,17.72,NW,321,2.2,2.7,11,0.00,,,0.00,meteobridge,2013-11-13 19:42:00,
2013-11-13 11:46:00,97.9,34.5,17.72,SW,224,2.7,3.6,11,0.00,,,0.00,meteobridge,2013-11-13 19:46:00,
2013-11-13 11:48:00,95.0,32.2,17.72,SW,224,4.9,4.9,11,0.00,,,0.00,meteobridge,2013-11-13 19:48:00,
2013-11-13 11:50:00,91.6,31.8,17.72,WSW,248,3.1,4.0,12,0.00,,,0.00,meteobridge,2013-11-13 19:50:00,
2013-11-13 11:52:00,92.7,32.7,17.72,NW,311,3.1,4.0,12,0.00,,,0.00,meteobridge,2013-11-13 19:52:00,
2013-11-13 11:54:00,93.9,31.5,17.72,WSW,250,2.7,4.0,11,0.00,,,0.00,meteobridge,2013-11-13 19:54:00,
2013-11-13 11:56:00,94.8,32.2,17.72,WSW,252,0.0,4.9,11,0.00,,,0.00,meteobridge,2013-11-13 19:56:00,
2013-11-13 11:59:00,95.5,32.7,17.72,West,273,2.7,4.0,11,0.00,,,0.00,meteobridge,2013-11-13 19:59:00,
2013-11-13 12:01:00,97.5,34.2,17.72,WNW,286,4.5,4.5,11,0.00,,,0.00,meteobridge,2013-11-13 20:01:00,
2013-11-13 12:03:00,97.0,33.8,17.72,NW,310,2.7,4.0,11,0.00,,,0.00,meteobridge,2013-11-13 20:03:00,
2013-11-13 12:05:00,97.9,34.5,17.72,NW,307,0.0,4.0,11,0.00,,,0.00,meteobridge,2013-11-13 20:05:00,
2013-11-13 12:07:00,97.5,34.2,17.72,WNW,299,0.0,3.1,11,0.00,,,0.00,meteobridge,2013-11-13 20:07:00,
2013-11-13 12:11:00,98.6,32.7,17.72,NW,312,4.0,4.0,10,0.00,,,0.00,meteobridge,2013-11-13 20:11:00,
2013-11-13 12:13:00,98.8,32.7,17.72,WSW,250,2.7,4.0,10,0.00,,,0.00,meteobridge,2013-11-13 20:13:00,
2013-11-13 12:17:00,98.1,34.5,17.72,West,276,3.1,4.0,11,0.00,,,0.00,meteobridge,2013-11-13 20:17:00,
2013-11-13 12:19:00,99.5,33.3,17.72,WNW,300,0.0,2.7,10,0.00,,,0.00,meteobridge,2013-11-13 20:19:00,
2013-11-13 12:21:00,99.3,33.3,17.72,WNW,297,3.1,4.9,10,0.00,,,0.00,meteobridge,2013-11-13 20:21:00,
2013-11-13 12:23:00,99.3,33.3,17.72,WSW,253,2.7,4.5,10,0.00,,,0.00,meteobridge,2013-11-13 20:23:00,
2013-11-13 12:25:00,99.5,33.3,17.72,WSW,256,3.6,4.0,10,0.00,,,0.00,meteobridge,2013-11-13 20:25:00,
2013-11-13 12:27:00,99.0,32.9,17.72,WNW,299,0.0,3.1,10,0.00,,,0.00,meteobridge,2013-11-13 20:27:00,
2013-11-13 12:30:00,99.3,33.3,17.72,WNW,302,2.2,3.6,10,0.00,,,0.00,meteobridge,2013-11-13 20:30:00,
2013-11-13 12:36:00,98.6,32.7,17.72,WSW,257,4.0,4.0,10,0.00,,,0.00,meteobridge,2013-11-13 20:36:00,
2013-11-13 12:38:00,99.1,33.1,17.72,West,272,2.2,4.0,10,0.00,,,0.00,meteobridge,2013-11-13 20:38:00,
2013-11-13 12:40:00,99.0,32.9,17.72,West,267,0.0,0.0,10,0.00,,,0.00,meteobridge,2013-11-13 20:40:00,
2013-11-13 12:42:00,97.0,33.8,17.72,SW,220,3.6,4.0,11,0.00,,,0.00,meteobridge,2013-11-13 20:42:00,
2013-11-13 12:46:00,92.8,32.7,17.72,SW,229,2.7,4.0,12,0.00,,,0.00,meteobridge,2013-11-13 20:46:00,
2013-11-13 12:48:00,92.5,32.5,17.72,WNW,282,4.0,5.4,12,0.00,,,0.00,meteobridge,2013-11-13 20:48:00,
2013-11-13 12:53:00,96.8,33.6,17.72,WSW,244,0.0,5.4,11,0.00,,,0.00,meteobridge,2013-11-13 20:53:00,
2013-11-13 12:55:00,98.4,34.9,17.72,West,278,3.6,5.4,11,0.00,,,0.00,meteobridge,2013-11-13 20:55:00,
2013-11-13 12:57:00,99.5,33.3,17.72,WSW,258,2.7,4.0,10,0.00,,,0.00,meteobridge,2013-11-13 20:57:00,
2013-11-13 12:59:00,99.5,33.3,17.72,NW,317,3.1,3.1,10,0.00,,,0.00,meteobridge,2013-11-13 20:59:00,
2013-11-13 13:03:00,100.2,33.8,17.72,WSW,250,3.1,3.6,10,0.00,,,0.00,meteobridge,2013-11-13 21:03:00,
2013-11-13 13:05:00,100.8,34.3,17.72,SW,236,3.6,3.6,10,0.00,,,0.00,meteobridge,2013-11-13 21:05:00,
2013-11-13 13:07:00,100.2,33.8,17.72,WSW,256,4.9,4.9,10,0.00,,,0.00,meteobridge,2013-11-13 21:07:00,
2013-11-13 13:11:00,99.9,33.6,17.72,WNW,299,3.6,5.4,10,0.00,,,0.00,meteobridge,2013-11-13 21:11:00,
2013-11-13 13:13:00,99.3,33.3,17.72,NW,304,2.7,4.0,10,0.00,,,0.00,meteobridge,2013-11-13 21:13:00,
2013-11-13 13:16:00,97.7,34.3,17.72,WNW,290,2.2,4.0,11,0.00,,,0.00,meteobridge,2013-11-13 21:16:00,
2013-11-13 13:18:00,97.7,34.3,17.72,West,274,2.2,5.4,11,0.00,,,0.00,meteobridge,2013-11-13 21:18:00,
2013-11-13 13:20:00,97.9,34.5,17.72,WNW,292,4.0,5.4,11,0.00,,,0.00,meteobridge,2013-11-13 21:20:00,
2013-11-13 13:22:00,98.2,34.7,17.72,WNW,286,0.0,3.6,11,0.00,,,0.00,meteobridge,2013-11-13 21:22:00,
2013-11-13 13:24:00,96.8,33.6,17.72,WSW,254,2.2,6.3,11,0.00,,,0.00,meteobridge,2013-11-13 21:24:00,
2013-11-13 13:26:00,96.3,33.3,17.72,WSW,248,3.1,5.8,11,0.00,,,0.00,meteobridge,2013-11-13 21:26:00,
2013-11-13 13:28:00,97.2,34.0,17.72,West,275,4.0,4.9,11,0.00,,,0.00,meteobridge,2013-11-13 21:28:00,
2013-11-13 13:30:00,97.2,34.0,17.72,WNW,287,3.6,4.0,11,0.00,,,0.00,meteobridge,2013-11-13 21:30:00,
2013-11-13 13:33:00,94.8,32.2,17.72,WSW,238,3.6,4.5,11,0.00,,,0.00,meteobridge,2013-11-13 21:33:00,
2013-11-13 13:35:00,95.5,32.7,17.72,West,277,2.2,3.6,11,0.00,,,0.00,meteobridge,2013-11-13 21:35:00,
2013-11-13 13:39:00,95.0,32.2,17.72,West,274,3.1,3.6,11,0.00,,,0.00,meteobridge,2013-11-13 21:39:00,
2013-11-13 13:41:00,94.6,32.0,17.72,SW,221,2.7,4.0,11,0.00,,,0.00,meteobridge,2013-11-13 21:41:00,
2013-11-13 13:43:00,96.4,33.4,17.72,WSW,245,2.7,3.1,11,0.00,,,0.00,meteobridge,2013-11-13 21:43:00,
2013-11-13 13:45:00,97.7,34.3,17.72,WSW,244,0.0,3.6,11,0.00,,,0.00,meteobridge,2013-11-13 21:45:00,
2013-11-13 13:49:00,98.2,34.7,17.72,WNW,295,2.7,4.0,11,0.00,,,0.00,meteobridge,2013-11-13 21:49:00,
2013-11-13 13:51:00,99.1,33.1,17.72,SW,234,3.6,3.6,10,0.00,,,0.00,meteobridge,2013-11-13 21:51:00,
2013-11-13 13:53:00,97.3,34.0,17.72,NW,307,0.0,4.9,11,0.00,,,0.00,meteobridge,2013-11-13 21:53:00,
2013-11-13 13:55:00,98.1,34.5,17.72,WSW,241,0.0,4.0,11,0.00,,,0.00,meteobridge,2013-11-13 21:55:00,
2013-11-13 13:59:00,98.2,34.7,17.72,NW,324,0.0,4.5,11,0.00,,,0.00,meteobridge,2013-11-13 21:59:00,
2013-11-13 14:02:00,98.8,32.7,17.72,NW,310,2.2,3.6,10,0.00,,,0.00,meteobridge,2013-11-13 22:02:00,
2013-11-13 14:04:00,100.2,33.8,17.72,West,272,4.0,4.0,10,0.00,,,0.00,meteobridge,2013-11-13 22:04:00,
2013-11-13 14:08:00,100.4,34.0,17.72,WSW,253,3.1,3.1,10,0.00,,,0.00,meteobridge,2013-11-13 22:08:00,
2013-11-13 14:10:00,99.9,33.6,17.72,SW,222,2.2,3.1,10,0.00,,,0.00,meteobridge,2013-11-13 22:10:00,
2013-11-13 14:14:00,100.2,33.8,17.72,WNW,295,3.1,3.6,10,0.00,,,0.00,meteobridge,2013-11-13 22:14:00,
2013-11-13 14:16:00,101.3,34.7,17.72,WSW,253,0.0,3.6,10,0.00,,,0.00,meteobridge,2013-11-13 22:16:00,
2013-11-13 14:18:00,100.0,33.8,17.72,West,272,4.9,5.4,10,0.00,,,0.00,meteobridge,2013-11-13 22:18:00,
2013-11-13 14:20:00,99.0,32.9,17.72,WNW,284,2.7,4.9,10,0.00,,,0.00,meteobridge,2013-11-13 22:20:00,
2013-11-13 14:23:00,99.7,33.4,17.72,WNW,285,3.1,4.0,10,0.00,,,0.00,meteobridge,2013-11-13 22:23:00,
2013-11-13 14:25:00,98.2,34.7,17.72,West,280,2.2,4.0,11,0.00,,,0.00,meteobridge,2013-11-13 22:25:00,
2013-11-13 14:27:00,97.9,34.5,17.72,West,259,3.1,3.6,11,0.00,,,0.00,meteobridge,2013-11-13 22:27:00,
2013-11-13 14:31:00,96.3,33.3,17.72,West,275,2.2,4.9,11,0.00,,,0.00,meteobridge,2013-11-13 22:31:00,
2013-11-13 14:35:00,94.8,32.2,17.72,WNW,303,3.1,4.5,11,0.00,,,0.00,meteobridge,2013-11-13 22:35:00,
2013-11-13 14:39:00,93.4,31.1,17.72,NNW,327,2.7,4.0,11,0.00,,,0.00,meteobridge,2013-11-13 22:39:00,
2013-11-13 14:41:00,93.6,31.1,17.72,WNW,288,3.6,4.0,11,0.00,,,0.00,meteobridge,2013-11-13 22:41:00,
2013-11-13 14:43:00,93.2,30.9,17.72,WNW,293,2.2,4.9,11,0.00,,,0.00,meteobridge,2013-11-13 22:43:00,
2013-11-13 14:45:00,93.6,31.1,17.72,WNW,294,0.0,3.6,11,0.00,,,0.00,meteobridge,2013-11-13 22:45:00,
2013-11-13 14:51:00,91.8,32.0,17.72,NW,315,3.6,4.0,12,0.00,,,0.00,meteobridge,2013-11-13 22:51:00,
2013-11-13 14:54:00,93.4,31.1,17.72,West,267,3.1,3.6,11,0.00,,,0.00,meteobridge,2013-11-13 22:54:00,
2013-11-13 14:56:00,93.0,32.9,17.72,WSW,250,3.1,3.6,12,0.00,,,0.00,meteobridge,2013-11-13 22:56:00,
2013-11-13 15:00:00,92.8,32.7,17.72,West,278,3.1,4.5,12,0.00,,,0.00,meteobridge,2013-11-13 23:00:00,
2013-11-13 15:02:00,91.2,31.5,17.72,WNW,292,3.6,5.4,12,0.00,,,0.00,meteobridge,2013-11-13 23:02:00,
2013-11-13 15:04:00,90.7,31.1,17.72,WNW,293,3.6,4.0,12,0.00,,,0.00,meteobridge,2013-11-13 23:04:00,
2013-11-13 15:08:00,91.0,31.5,17.72,West,271,3.1,4.0,12,0.00,,,0.00,meteobridge,2013-11-13 23:08:00,
2013-11-13 15:10:00,91.2,31.5,17.72,NW,314,4.0,4.0,12,0.00,,,0.00,meteobridge,2013-11-13 23:10:00,
2013-11-13 15:12:00,90.1,30.7,17.72,NW,314,2.2,4.9,12,0.00,,,0.00,meteobridge,2013-11-13 23:12:00,
2013-11-13 15:14:00,90.1,30.7,17.72,WNW,288,4.9,4.9,12,0.00,,,0.00,meteobridge,2013-11-13 23:14:00,
2013-11-13 15:16:00,90.3,30.7,17.72,WSW,242,3.6,5.4,12,0.00,,,0.00,meteobridge,2013-11-13 23:16:00,
2013-11-13 15:21:00,88.7,31.5,17.72,West,267,2.2,3.6,13,0.00,,,0.00,meteobridge,2013-11-13 23:21:00,
2013-11-13 15:23:00,88.7,31.5,17.72,WNW,298,3.1,3.1,13,0.00,,,0.00,meteobridge,2013-11-13 23:23:00,
2013-11-13 15:25:00,90.1,30.7,17.72,NW,310,2.2,3.6,12,0.00,,,0.00,meteobridge,2013-11-13 23:25:00,
2013-11-13 15:27:00,90.1,30.7,17.72,WNW,296,3.6,4.0,12,0.00,,,0.00,meteobridge,2013-11-13 23:27:00,
2013-11-13 15:29:00,89.1,31.8,17.72,WNW,299,3.1,4.0,13,0.00,,,0.00,meteobridge,2013-11-13 23:29:00,
2013-11-13 15:31:00,88.7,31.5,17.72,West,270,0.0,3.6,13,0.00,,,0.00,meteobridge,2013-11-13 23:31:00,
2013-11-13 15:33:00,90.0,30.6,17.72,West,281,2.7,3.6,12,0.00,,,0.00,meteobridge,2013-11-13 23:33:00,
2013-11-13 15:35:00,90.9,31.3,17.72,West,281,3.1,3.6,12,0.00,,,0.00,meteobridge,2013-11-13 23:35:00,
2013-11-13 15:37:00,91.2,31.5,17.72,SW,227,2.2,2.7,12,0.00,,,0.00,meteobridge,2013-11-13 23:37:00,
2013-11-13 15:39:00,91.0,31.5,17.72,WSW,248,0.0,2.7,12,0.00,,,0.00,meteobridge,2013-11-13 23:39:00,
2013-11-13 15:42:00,91.0,31.5,17.72,West,260,0.0,0.0,12,0.00,,,0.00,meteobridge,2013-11-13 23:42:00,
2013-11-13 15:44:00,91.4,31.6,17.72,WSW,240,0.0,0.0,12,0.00,,,0.00,meteobridge,2013-11-13 23:44:00,
2013-11-13 15:46:00,91.2,31.5,17.72,WSW,243,0.0,0.0,12,0.00,,,0.00,meteobridge,2013-11-13 23:46:00,
2013-11-13 15:48:00,90.7,31.1,17.72,SW,234,0.0,0.0,12,0.00,,,0.00,meteobridge,2013-11-13 23:48:00,
2013-11-13 15:52:00,89.1,31.8,17.72,SSW,204,2.7,2.7,13,0.00,,,0.00,meteobridge,2013-11-13 23:52:00,
2013-11-13 15:54:00,87.6,30.7,17.72,SW,220,0.0,0.0,13,0.00,,,0.00,meteobridge,2013-11-13 23:54:00,
2013-11-13 15:56:00,87.1,30.2,17.72,SW,220,0.0,0.0,13,0.00,,,0.00,meteobridge,2013-11-13 23:56:00,
2013-11-13 15:58:00,86.5,29.8,17.72,SW,217,2.7,2.7,13,0.00,,,0.00,meteobridge,2013-11-13 23:58:00,
2013-11-13 16:00:00,84.6,28.4,17.72,South,181,3.1,3.6,13,0.00,,,0.00,meteobridge,2013-11-14 00:00:00,
2013-11-13 16:02:00,83.1,28.9,17.72,SW,220,3.1,3.1,14,0.00,,,0.00,meteobridge,2013-11-14 00:02:00,
2013-11-13 16:04:00,83.3,29.1,17.72,SW,226,0.0,4.0,14,0.00,,,0.00,meteobridge,2013-11-14 00:04:00,
2013-11-13 16:11:00,83.7,29.5,17.72,WSW,258,0.0,0.0,14,0.00,,,0.00,meteobridge,2013-11-14 00:11:00,
2013-11-13 16:13:00,85.1,28.8,17.72,WSW,258,0.0,0.0,13,0.00,,,0.00,meteobridge,2013-11-14 00:13:00,
2013-11-13 16:17:00,85.6,29.1,17.72,WNW,282,0.0,0.0,13,0.00,,,0.00,meteobridge,2013-11-14 00:17:00,
2013-11-13 16:19:00,85.3,28.9,17.72,WNW,282,0.0,0.0,13,0.00,,,0.00,meteobridge,2013-11-14 00:19:00,
2013-11-13 16:23:00,83.7,29.5,17.72,WNW,301,0.0,0.0,14,0.00,,,0.00,meteobridge,2013-11-14 00:23:00,
2013-11-13 16:25:00,82.9,28.8,17.72,NW,307,0.0,0.0,14,0.00,,,0.00,meteobridge,2013-11-14 00:25:00,
2013-11-13 16:30:00,81.3,27.5,17.72,NW,311,0.0,0.0,14,0.00,,,0.00,meteobridge,2013-11-14 00:30:00,
2013-11-13 16:32:00,81.1,27.5,17.72,WNW,303,0.0,0.0,14,0.00,,,0.00,meteobridge,2013-11-14 00:32:00,
2013-11-13 16:34:00,80.6,27.0,17.72,WNW,303,0.0,0.0,14,0.00,,,0.00,meteobridge,2013-11-14 00:34:00,
2013-11-13 16:36:00,80.2,28.4,17.72,WNW,294,2.7,4.0,15,0.00,,,0.00,meteobridge,2013-11-14 00:36:00,
2013-11-13 16:38:00,79.3,27.7,17.72,NW,313,2.7,2.7,15,0.00,,,0.00,meteobridge,2013-11-14 00:38:00,
2013-11-13 16:40:00,78.6,27.1,17.72,NW,326,2.2,2.7,15,0.00,,,0.00,meteobridge,2013-11-14 00:40:00,
2013-11-13 16:44:00,77.2,25.9,17.72,NNW,339,5.4,5.4,15,0.00,,,0.00,meteobridge,2013-11-14 00:44:00,
2013-11-13 16:46:00,76.6,25.5,17.72,NNW,329,2.7,4.9,15,0.00,,,0.00,meteobridge,2013-11-14 00:46:00,
2013-11-13 16:50:00,75.0,25.7,17.72,NNW,348,2.7,2.7,16,0.00,,,0.00,meteobridge,2013-11-14 00:50:00,
2013-11-13 16:53:00,74.8,25.7,17.72,North,0,0.0,3.6,16,0.00,,,0.00,meteobridge,2013-11-14 00:53:00,
2013-11-13 16:57:00,73.6,24.6,17.72,NW,325,2.2,4.0,16,0.00,,,0.00,meteobridge,2013-11-14 00:57:00,
2013-11-13 16:59:00,73.4,24.4,17.72,NNW,328,2.2,2.7,16,0.00,,,0.00,meteobridge,2013-11-14 00:59:00,
2013-11-13 17:03:00,72.7,23.9,17.72,NNW,328,0.0,0.0,16,0.00,,,0.00,meteobridge,2013-11-14 01:03:00,
2013-11-13 17:05:00,72.1,23.5,17.72,NW,322,0.0,0.0,16,0.00,,,0.00,meteobridge,2013-11-14 01:05:00,
2013-11-13 17:07:00,72.1,23.5,17.72,NW,322,0.0,0.0,16,0.00,,,0.00,meteobridge,2013-11-14 01:07:00,
2013-11-13 17:09:00,72.1,23.5,17.72,NW,322,0.0,0.0,16,0.00,,,0.00,meteobridge,2013-11-14 01:09:00,
2013-11-13 17:11:00,71.8,23.2,17.72,NW,322,0.0,0.0,16,0.00,,,0.00,meteobridge,2013-11-14 01:11:00,
2013-11-13 17:17:00,71.8,23.2,17.72,North,353,0.0,0.0,16,0.00,,,0.00,meteobridge,2013-11-14 01:17:00,
2013-11-13 17:22:00,71.4,24.3,17.72,North,353,0.0,0.0,17,0.00,,,0.00,meteobridge,2013-11-14 01:22:00,
2013-11-13 17:24:00,71.4,24.3,17.72,North,353,0.0,0.0,17,0.00,,,0.00,meteobridge,2013-11-14 01:24:00,
2013-11-13 17:26:00,71.2,24.3,17.72,North,353,0.0,0.0,17,0.00,,,0.00,meteobridge,2013-11-14 01:26:00,
2013-11-13 17:30:00,70.9,23.9,17.72,North,2,0.0,0.0,17,0.00,,,0.00,meteobridge,2013-11-14 01:30:00,
2013-11-13 17:36:00,70.5,23.5,17.72,North,11,0.0,0.0,17,0.00,,,0.00,meteobridge,2013-11-14 01:36:00,
2013-11-13 17:38:00,70.5,23.5,17.72,North,11,0.0,0.0,17,0.00,,,0.00,meteobridge,2013-11-14 01:38:00,
2013-11-13 17:42:00,70.3,23.5,17.72,North,10,0.0,0.0,17,0.00,,,0.00,meteobridge,2013-11-14 01:42:00,
2013-11-13 17:47:00,70.5,23.5,17.72,North,353,0.0,0.0,17,0.00,,,0.00,meteobridge,2013-11-14 01:47:00,
2013-11-13 17:49:00,70.3,18.9,17.72,NNW,346,0.0,0.0,14,0.00,,,0.00,meteobridge,2013-11-14 01:49:00,
2013-11-13 17:51:00,70.7,23.7,17.72,NNW,346,0.0,0.0,17,0.00,,,0.00,meteobridge,2013-11-14 01:51:00,
2013-11-13 17:53:00,70.7,23.7,17.72,NNW,346,0.0,0.0,17,0.00,,,0.00,meteobridge,2013-11-14 01:53:00,
2013-11-13 17:55:00,70.7,23.7,17.72,North,11,3.1,3.1,17,0.00,,,0.00,meteobridge,2013-11-14 01:55:00,
2013-11-13 17:59:00,70.2,23.4,17.72,NNE,16,0.0,0.0,17,0.00,,,0.00,meteobridge,2013-11-14 01:59:00,
2013-11-13 18:01:00,70.0,23.2,17.72,NNE,16,0.0,0.0,17,0.00,,,0.00,meteobridge,2013-11-14 02:01:00,
2013-11-13 18:05:00,69.6,22.8,17.72,NNE,16,0.0,0.0,17,0.00,,,0.00,meteobridge,2013-11-14 02:05:00,
2013-11-13 18:07:00,69.6,22.8,17.72,NNE,21,0.0,0.0,17,0.00,,,0.00,meteobridge,2013-11-14 02:07:00,
2013-11-13 18:11:00,69.4,22.6,17.72,NNE,21,0.0,0.0,17,0.00,,,0.00,meteobridge,2013-11-14 02:11:00,
2013-11-13 18:14:00,69.4,22.6,17.72,NNE,21,0.0,0.0,17,0.00,,,0.00,meteobridge,2013-11-14 02:14:00,
2013-11-13 18:16:00,69.3,22.6,17.72,NNE,21,0.0,0.0,17,0.00,,,0.00,meteobridge,2013-11-14 02:16:00,
2013-11-13 18:20:00,69.6,22.8,17.72,North,0,0.0,0.0,17,0.00,,,0.00,meteobridge,2013-11-14 02:20:00,
2013-11-13 18:22:00,69.8,23.0,17.72,North,357,0.0,0.0,17,0.00,,,0.00,meteobridge,2013-11-14 02:22:00,
2013-11-13 18:24:00,69.8,23.0,17.72,NNE,12,0.0,0.0,17,0.00,,,0.00,meteobridge,2013-11-14 02:24:00,
2013-11-13 18:26:00,69.8,23.0,17.72,NNE,12,2.2,2.7,17,0.00,,,0.00,meteobridge,2013-11-14 02:26:00,
2013-11-13 18:28:00,69.6,22.8,17.72,NNE,13,0.0,2.7,17,0.00,,,0.00,meteobridge,2013-11-14 02:28:00,
2013-11-13 18:30:00,69.6,22.8,17.72,NNE,12,0.0,2.7,17,0.00,,,0.00,meteobridge,2013-11-14 02:30:00,
2013-11-13 18:32:00,69.6,22.8,17.72,NNE,12,0.0,0.0,17,0.00,,,0.00,meteobridge,2013-11-14 02:32:00,
2013-11-13 18:36:00,69.4,22.6,17.72,NNE,12,0.0,0.0,17,0.00,,,0.00,meteobridge,2013-11-14 02:36:00,
2013-11-13 18:38:00,69.4,22.6,17.72,NNE,12,0.0,0.0,17,0.00,,,0.00,meteobridge,2013-11-14 02:38:00,
2013-11-13 18:41:00,69.6,22.8,17.72,NNE,12,0.0,0.0,17,0.00,,,0.00,meteobridge,2013-11-14 02:41:00,
2013-11-13 18:45:00,70.0,23.2,17.72,NNE,12,0.0,0.0,17,0.00,,,0.00,meteobridge,2013-11-14 02:45:00,
2013-11-13 18:47:00,69.8,23.0,17.72,NNE,12,0.0,0.0,17,0.00,,,0.00,meteobridge,2013-11-14 02:47:00,
2013-11-13 18:49:00,70.0,23.2,17.72,NNE,12,0.0,0.0,17,0.00,,,0.00,meteobridge,2013-11-14 02:49:00,
2013-11-13 18:51:00,70.2,23.4,17.72,NNE,12,0.0,0.0,17,0.00,,,0.00,meteobridge,2013-11-14 02:51:00,
2013-11-13 18:53:00,70.0,23.2,17.72,NNE,12,0.0,0.0,17,0.00,,,0.00,meteobridge,2013-11-14 02:53:00,
2013-11-13 18:59:00,69.6,22.8,17.72,NNE,12,0.0,0.0,17,0.00,,,0.00,meteobridge,2013-11-14 02:59:00,
2013-11-13 19:02:00,69.6,22.8,17.72,NNE,12,0.0,0.0,17,0.00,,,0.00,meteobridge,2013-11-14 03:02:00,
2013-11-13 19:04:00,69.3,22.6,17.72,NNE,12,0.0,0.0,17,0.00,,,0.00,meteobridge,2013-11-14 03:04:00,
2013-11-13 19:08:00,69.3,22.6,17.72,NNE,12,0.0,0.0,17,0.00,,,0.00,meteobridge,2013-11-14 03:08:00,
2013-11-13 19:10:00,69.3,22.6,17.72,NNE,12,0.0,0.0,17,0.00,,,0.00,meteobridge,2013-11-14 03:10:00,
2013-11-13 19:14:00,69.4,22.6,17.72,NNE,12,0.0,0.0,17,0.00,,,0.00,meteobridge,2013-11-14 03:14:00,
2013-11-13 19:16:00,69.4,22.6,17.72,NNE,12,0.0,0.0,17,0.00,,,0.00,meteobridge,2013-11-14 03:16:00,
2013-11-13 19:18:00,69.6,22.8,17.72,NNE,12,0.0,0.0,17,0.00,,,0.00,meteobridge,2013-11-14 03:18:00,
2013-11-13 19:20:00,69.8,23.0,17.72,NNE,12,0.0,0.0,17,0.00,,,0.00,meteobridge,2013-11-14 03:20:00,
2013-11-13 19:24:00,70.2,23.4,17.72,North,353,0.0,0.0,17,0.00,,,0.00,meteobridge,2013-11-14 03:24:00,
2013-11-13 19:29:00,70.3,23.5,17.72,North,357,0.0,0.0,17,0.00,,,0.00,meteobridge,2013-11-14 03:29:00,
2013-11-13 19:31:00,70.5,23.5,17.72,North,357,0.0,0.0,17,0.00,,,0.00,meteobridge,2013-11-14 03:31:00,
2013-11-13 19:33:00,70.7,23.7,17.72,North,0,0.0,0.0,17,0.00,,,0.00,meteobridge,2013-11-14 03:33:00,
2013-11-13 19:37:00,70.7,23.7,17.72,NNW,348,0.0,0.0,17,0.00,,,0.00,meteobridge,2013-11-14 03:37:00,
2013-11-13 19:39:00,70.5,23.5,17.72,NNW,348,0.0,0.0,17,0.00,,,0.00,meteobridge,2013-11-14 03:39:00,
2013-11-13 19:45:00,70.2,23.4,17.72,NNW,348,0.0,0.0,17,0.00,,,0.00,meteobridge,2013-11-14 03:45:00,
2013-11-13 19:47:00,69.8,23.0,17.72,NNW,348,0.0,0.0,17,0.00,,,0.00,meteobridge,2013-11-14 03:47:00,
2013-11-13 19:51:00,70.0,23.2,17.72,NNW,348,0.0,0.0,17,0.00,,,0.00,meteobridge,2013-11-14 03:51:00,
2013-11-13 19:53:00,70.0,23.2,17.72,NNW,348,0.0,0.0,17,0.00,,,0.00,meteobridge,2013-11-14 03:53:00,
2013-11-13 19:55:00,70.0,23.2,17.72,NNW,348,0.0,0.0,17,0.00,,,0.00,meteobridge,2013-11-14 03:55:00,
2013-11-13 20:00:00,69.6,22.8,17.72,NNW,348,0.0,0.0,17,0.00,,,0.00,meteobridge,2013-11-14 04:00:00,
2013-11-13 20:06:00,68.4,21.9,17.72,North,357,0.0,0.0,17,0.00,,,0.00,meteobridge,2013-11-14 04:06:00,
2013-11-13 20:12:00,67.6,21.2,17.72,NNE,15,0.0,0.0,17,0.00,,,0.00,meteobridge,2013-11-14 04:12:00,
2013-11-13 20:14:00,68.0,21.6,17.72,SSW,192,0.0,2.7,17,0.00,,,0.00,meteobridge,2013-11-14 04:14:00,
2013-11-13 20:16:00,67.8,21.4,17.72,South,190,0.0,0.0,17,0.00,,,0.00,meteobridge,2013-11-14 04:16:00,
2013-11-13 20:19:00,67.5,21.2,17.72,South,190,0.0,0.0,17,0.00,,,0.00,meteobridge,2013-11-14 04:19:00,
2013-11-13 20:21:00,67.5,21.2,17.72,South,191,0.0,0.0,17,0.00,,,0.00,meteobridge,2013-11-14 04:21:00,
2013-11-13 20:25:00,67.1,20.8,17.72,NNE,14,0.0,2.7,17,0.00,,,0.00,meteobridge,2013-11-14 04:25:00,
2013-11-13 20:27:00,67.1,20.8,17.72,NNE,14,0.0,0.0,17,0.00,,,0.00,meteobridge,2013-11-14 04:27:00,
2013-11-13 20:31:00,67.3,21.0,17.72,South,183,0.0,0.0,17,0.00,,,0.00,meteobridge,2013-11-14 04:31:00,
2013-11-13 20:33:00,67.1,20.8,17.72,South,183,0.0,0.0,17,0.00,,,0.00,meteobridge,2013-11-14 04:33:00,
2013-11-13 20:37:00,66.7,20.5,17.72,NNE,25,0.0,0.0,17,0.00,,,0.00,meteobridge,2013-11-14 04:37:00,
2013-11-13 20:39:00,66.9,20.7,17.72,NE,45,0.0,0.0,17,0.00,,,0.00,meteobridge,2013-11-14 04:39:00,
2013-11-13 20:42:00,67.3,21.0,17.72,NNE,29,0.0,3.1,17,0.00,,,0.00,meteobridge,2013-11-14 04:42:00,
2013-11-13 20:44:00,67.3,21.0,17.72,NNE,31,0.0,0.0,17,0.00,,,0.00,meteobridge,2013-11-14 04:44:00,
2013-11-13 20:46:00,67.5,21.2,17.72,NNE,31,0.0,0.0,17,0.00,,,0.00,meteobridge,2013-11-14 04:46:00,
2013-11-13 20:48:00,67.8,21.4,17.72,NE,40,0.0,0.0,17,0.00,,,0.00,meteobridge,2013-11-14 04:48:00,
2013-11-13 20:50:00,68.0,21.6,17.72,ENE,63,2.7,2.7,17,0.00,,,0.00,meteobridge,2013-11-14 04:50:00,
2013-11-13 20:52:00,68.2,18.7,17.72,ENE,75,3.6,4.0,15,0.00,,,0.00,meteobridge,2013-11-14 04:52:00,
2013-11-13 20:56:00,69.3,19.6,17.72,ENE,58,2.2,3.6,15,0.00,,,0.00,meteobridge,2013-11-14 04:56:00,
2013-11-13 21:00:00,70.5,19.0,17.72,ENE,67,2.7,4.0,14,0.00,,,0.00,meteobridge,2013-11-14 05:00:00,
2013-11-13 21:02:00,70.9,19.2,17.72,NNE,32,3.6,4.9,14,0.00,,,0.00,meteobridge,2013-11-14 05:02:00,
2013-11-13 21:05:00,71.4,24.3,17.72,ENE,67,6.3,6.3,17,0.00,,,0.00,meteobridge,2013-11-14 05:05:00,
2013-11-13 21:07:00,71.8,23.2,17.72,NNE,32,2.7,4.5,16,0.00,,,0.00,meteobridge,2013-11-14 05:07:00,
2013-11-13 21:09:00,72.1,23.5,17.72,ENE,67,3.6,5.8,16,0.00,,,0.00,meteobridge,2013-11-14 05:09:00,
2013-11-13 21:11:00,72.5,23.7,17.72,ENE,77,4.0,6.3,16,0.00,,,0.00,meteobridge,2013-11-14 05:11:00,
2013-11-13 21:13:00,72.7,23.9,17.72,NE,47,5.4,6.3,16,0.00,,,0.00,meteobridge,2013-11-14 05:13:00,
2013-11-13 21:15:00,72.9,24.1,17.72,ENE,72,3.6,5.8,16,0.00,,,0.00,meteobridge,2013-11-14 05:15:00,
2013-11-13 21:17:00,72.9,24.1,17.72,ENE,75,6.3,6.3,16,0.00,,,0.00,meteobridge,2013-11-14 05:17:00,
2013-11-13 21:19:00,73.0,24.3,17.72,NE,49,4.0,4.9,16,0.00,,,0.00,meteobridge,2013-11-14 05:19:00,
2013-11-13 21:21:00,73.0,24.3,17.72,ENE,76,3.1,5.4,16,0.00,,,0.00,meteobridge,2013-11-14 05:21:00,
2013-11-13 21:28:00,72.9,24.1,17.72,NNE,16,2.7,4.0,16,0.00,,,0.00,meteobridge,2013-11-14 05:28:00,
2013-11-13 21:30:00,72.3,23.5,17.72,WSW,237,2.7,2.7,16,0.00,,,0.00,meteobridge,2013-11-14 05:30:00,
2013-11-13 21:32:00,71.2,24.3,17.72,WSW,254,0.0,2.7,17,0.00,,,0.00,meteobridge,2013-11-14 05:32:00,
2013-11-13 21:34:00,70.0,23.2,17.72,West,279,0.0,0.0,17,0.00,,,0.00,meteobridge,2013-11-14 05:34:00,
2013-11-13 21:36:00,68.7,22.1,17.72,WNW,292,0.0,0.0,17,0.00,,,0.00,meteobridge,2013-11-14 05:36:00,
2013-11-13 21:40:00,67.5,21.2,17.72,North,0,0.0,0.0,17,0.00,,,0.00,meteobridge,2013-11-14 05:40:00,
2013-11-13 21:42:00,67.1,20.8,17.72,NNW,340,0.0,0.0,17,0.00,,,0.00,meteobridge,2013-11-14 05:42:00,
2013-11-13 21:46:00,66.6,20.3,17.72,NW,313,0.0,0.0,17,0.00,,,0.00,meteobridge,2013-11-14 05:46:00,
2013-11-13 21:48:00,66.2,20.1,17.72,NNE,28,2.7,2.7,17,0.00,,,0.00,meteobridge,2013-11-14 05:48:00,
2013-11-13 21:53:00,67.6,18.3,17.72,NE,50,4.9,5.8,15,0.00,,,0.00,meteobridge,2013-11-14 05:53:00,
2013-11-13 21:55:00,68.7,19.2,17.72,North,357,0.0,8.3,15,0.00,,,0.00,meteobridge,2013-11-14 05:55:00,
2013-11-13 21:57:00,69.8,18.5,17.72,NNE,22,3.1,5.8,14,0.00,,,0.00,meteobridge,2013-11-14 05:57:00,
2013-11-13 21:59:00,70.9,19.2,17.72,East,83,3.6,4.9,14,0.00,,,0.00,meteobridge,2013-11-14 05:59:00,
2013-11-13 22:01:00,71.8,19.9,17.72,NE,52,7.6,7.6,14,0.00,,,0.00,meteobridge,2013-11-14 06:01:00,
2013-11-13 22:03:00,72.3,23.5,17.72,North,1,2.7,5.8,16,0.00,,,0.00,meteobridge,2013-11-14 06:03:00,
2013-11-13 22:05:00,72.9,24.1,17.72,NE,50,0.0,0.0,16,0.00,,,0.00,meteobridge,2013-11-14 06:05:00,
2013-11-13 22:07:00,72.5,23.7,17.72,East,92,0.0,6.3,16,0.00,,,0.00,meteobridge,2013-11-14 06:07:00,
2013-11-13 22:11:00,70.5,23.5,17.72,SW,223,0.0,0.0,17,0.00,,,0.00,meteobridge,2013-11-14 06:11:00,
2013-11-13 22:13:00,69.4,22.6,17.72,WNW,285,0.0,0.0,17,0.00,,,0.00,meteobridge,2013-11-14 06:13:00,
2013-11-13 22:18:00,67.6,21.2,17.72,SW,226,0.0,2.7,17,0.00,,,0.00,meteobridge,2013-11-14 06:18:00,
2013-11-13 22:20:00,67.1,20.8,17.72,SW,222,0.0,0.0,17,0.00,,,0.00,meteobridge,2013-11-14 06:20:00,
2013-11-13 22:22:00,66.6,20.3,17.72,West,270,0.0,0.0,17,0.00,,,0.00,meteobridge,2013-11-14 06:22:00,
2013-11-13 22:24:00,66.0,21.2,17.72,WNW,288,0.0,0.0,18,0.00,,,0.00,meteobridge,2013-11-14 06:24:00,
2013-11-13 22:26:00,65.7,21.0,17.72,WNW,288,0.0,0.0,18,0.00,,,0.00,meteobridge,2013-11-14 06:26:00,
2013-11-13 22:28:00,65.3,20.7,17.72,WNW,288,0.0,0.0,18,0.00,,,0.00,meteobridge,2013-11-14 06:28:00,
2013-11-13 22:30:00,64.9,20.5,17.72,NW,316,0.0,0.0,18,0.00,,,0.00,meteobridge,2013-11-14 06:30:00,
2013-11-13 22:32:00,64.8,20.3,17.72,NNW,338,0.0,0.0,18,0.00,,,0.00,meteobridge,2013-11-14 06:32:00,
2013-11-13 22:34:00,64.8,20.3,17.72,NNW,338,0.0,0.0,18,0.00,,,0.00,meteobridge,2013-11-14 06:34:00,
2013-11-13 22:36:00,64.8,22.8,17.72,NNW,338,0.0,0.0,20,0.00,,,0.00,meteobridge,2013-11-14 06:36:00,
2013-11-13 22:41:00,64.0,23.4,17.72,NNE,23,0.0,0.0,21,0.00,,,0.00,meteobridge,2013-11-14 06:41:00,
2013-11-13 22:43:00,64.0,23.4,17.72,NE,52,0.0,2.7,21,0.00,,,0.00,meteobridge,2013-11-14 06:43:00,
2013-11-13 22:47:00,64.4,25.7,17.72,SSW,210,0.0,0.0,23,0.00,,,0.00,meteobridge,2013-11-14 06:47:00,
2013-11-13 22:49:00,64.2,25.7,17.72,SSW,210,0.0,0.0,23,0.00,,,0.00,meteobridge,2013-11-14 06:49:00,
2013-11-13 22:51:00,63.9,25.3,17.72,SSW,210,0.0,0.0,23,0.00,,,0.00,meteobridge,2013-11-14 06:51:00,
2013-11-13 22:53:00,63.7,25.2,17.72,NE,50,0.0,0.0,23,0.00,,,0.00,meteobridge,2013-11-14 06:53:00,
2013-11-13 22:55:00,63.5,26.1,17.72,NE,49,2.7,3.6,24,0.00,,,0.00,meteobridge,2013-11-14 06:55:00,
2013-11-13 22:59:00,63.3,25.9,17.72,NE,49,0.0,0.0,24,0.00,,,0.00,meteobridge,2013-11-14 06:59:00,
2013-11-13 23:03:00,63.5,26.1,17.72,NE,49,0.0,0.0,24,0.00,,,0.00,meteobridge,2013-11-14 07:03:00,
2013-11-13 23:08:00,63.5,26.1,17.72,NE,49,0.0,0.0,24,0.00,,,0.00,meteobridge,2013-11-14 07:08:00,
2013-11-13 23:10:00,63.5,26.1,17.72,NE,49,0.0,0.0,24,0.00,,,0.00,meteobridge,2013-11-14 07:10:00,
2013-11-13 23:12:00,63.5,26.1,17.72,NNE,29,0.0,0.0,24,0.00,,,0.00,meteobridge,2013-11-14 07:12:00,
2013-11-13 23:14:00,63.5,26.1,17.72,NNE,22,0.0,0.0,24,0.00,,,0.00,meteobridge,2013-11-14 07:14:00,
2013-11-13 23:16:00,63.5,26.1,17.72,NNE,22,0.0,0.0,24,0.00,,,0.00,meteobridge,2013-11-14 07:16:00,
2013-11-13 23:18:00,63.5,27.0,17.72,NNE,22,0.0,0.0,25,0.00,,,0.00,meteobridge,2013-11-14 07:18:00,
2013-11-13 23:20:00,63.5,27.0,17.72,NNE,22,0.0,0.0,25,0.00,,,0.00,meteobridge,2013-11-14 07:20:00,
2013-11-13 23:24:00,63.3,27.0,17.72,NNE,22,0.0,0.0,25,0.00,,,0.00,meteobridge,2013-11-14 07:24:00,
2013-11-13 23:26:00,63.3,27.0,17.72,NNE,22,0.0,0.0,25,0.00,,,0.00,meteobridge,2013-11-14 07:26:00,
2013-11-13 23:31:00,63.3,27.0,17.72,NNE,22,0.0,0.0,25,0.00,,,0.00,meteobridge,2013-11-14 07:31:00,
2013-11-13 23:33:00,63.3,27.0,17.72,NNE,22,0.0,0.0,25,0.00,,,0.00,meteobridge,2013-11-14 07:33:00,
2013-11-13 23:35:00,63.0,27.5,17.72,NNE,22,0.0,0.0,26,0.00,,,0.00,meteobridge,2013-11-14 07:35:00,
2013-11-13 23:37:00,63.0,27.5,17.72,NNE,22,0.0,0.0,26,0.00,,,0.00,meteobridge,2013-11-14 07:37:00,
2013-11-13 23:39:00,63.1,27.7,17.72,NNE,22,0.0,0.0,26,0.00,,,0.00,meteobridge,2013-11-14 07:39:00,
2013-11-13 23:43:00,63.1,28.6,17.72,NNE,22,0.0,0.0,27,0.00,,,0.00,meteobridge,2013-11-14 07:43:00,
2013-11-13 23:45:00,63.1,29.5,17.72,NNE,22,0.0,0.0,28,0.00,,,0.00,meteobridge,2013-11-14 07:45:00,
2013-11-13 23:49:00,63.1,30.4,17.72,North,11,0.0,0.0,29,0.00,,,0.00,meteobridge,2013-11-14 07:49:00,
2013-11-13 23:51:00,63.1,30.4,17.72,North,4,0.0,0.0,29,0.00,,,0.00,meteobridge,2013-11-14 07:51:00,
2013-11-13 23:53:00,63.3,32.9,17.72,North,357,0.0,0.0,32,0.00,,,0.00,meteobridge,2013-11-14 07:53:00,
2013-11-13 23:56:00,63.1,32.7,17.72,North,357,0.0,0.0,32,0.00,,,0.00,meteobridge,2013-11-14 07:56:00,